This demonstration page uses our WeatherBlox Daily Observations layout. Learn more.

Left ArrowRight Arrow

39.92423, -83.80882

Hourly Observations for October 14, 2019

Temp ( °F °C ) Dew Point ( °F °C ) Humidity (%) Winds ( mph kmh ) Pressure ( in mb ) Visibility ( mi km ) Precip ( " mm )
12:56 am 00:56 Clear 50 10 38 3.3 63 63 SW 8 13 29.95 1014 10 16 0.00 0.00
1:56 am 01:56 Clear 51 10.6 38 3.3 61 61 SW 9 15 29.95 1014 10 16 0.00 0.00
2:56 am 02:56 Clear 51 10.6 38 3.3 61 61 WSW 10 17 29.96 1015 10 16 0.00 0.00
3:56 am 03:56 Clear 48 8.9 39 3.9 71 71 WSW 7 11 29.97 1015 10 16 0.00 0.00
4:56 am 04:56 Clear 45 7.2 38 3.3 77 77 W 7 11 29.99 1016 10 16 0.00 0.00
5:56 am 05:56 Clear 42 5.6 38 3.3 85 85 WNW 6 9 30.01 1016 10 16 0.00 0.00
6:56 am 06:56 Clear 41 5 38 3.3 89 89 WNW 3 6 30.04 1017 10 16 0.00 0.00
7:56 am 07:56 Sunny 39 3.9 38 3.3 96 96 SSW 3 6 30.06 1018 10 16 0.00 0.00
8:56 am 08:56 Sunny 44 6.7 40 4.4 85 85 SW 5 7 30.07 1018 10 16 0.00 0.00
9:56 am 09:56 Sunny 50 10 39 3.9 66 66 WSW 5 7 30.10 1019 10 16 0.00 0.00
10:56 am 10:56 Sunny 54 12.2 38 3.3 55 55 W 8 13 30.10 1019 10 16 0.00 0.00
11:56 am 11:56 Sunny 58 14.4 37 2.8 46 46 W 13 20 30.09 1019 10 16 0.00 0.00
12:56 pm 12:56 Sunny 59 15 38 3.3 46 46 W 13 20 30.09 1019 10 16 0.00 0.00
1:56 pm 13:56 Sunny 61 16.1 38 3.3 43 43 W 12 19 30.08 1019 10 16 0.00 0.00
2:56 pm 14:56 Sunny 63 17.2 37 2.8 38 38 W 15 24 30.07 1018 10 16 0.00 0.00
3:56 pm 15:56 Sunny 63 17.2 37 2.8 38 38 WSW 14 22 30.06 1018 10 16 0.00 0.00
4:56 pm 16:56 Sunny 63 17.2 36 2.2 37 37 W 14 22 30.07 1018 10 16 0.00 0.00
5:56 pm 17:56 Sunny 62 16.7 36 2.2 38 38 W 9 15 30.07 1018 10 16 0.00 0.00
6:56 pm 18:56 Sunny 57 13.9 37 2.8 47 47 WNW 6 9 30.09 1019 10 16 0.00 0.00
7:56 pm 19:56 Clear 54 12.2 37 2.8 53 53 WNW 3 6 30.10 1019 10 16 0.00 0.00
8:56 pm 20:56 Clear 48 8.9 38 3.3 68 68 Calm 30.12 1020 10 16 0.00 0.00
9:56 pm 21:56 Clear 45 7.2 38 3.3 77 77 Calm 30.13 1020 9 14 0.00 0.00
10:56 pm 22:56 Clear 42 5.6 38 3.3 85 85 Calm 30.13 1020 10 16 0.00 0.00
11:56 pm 23:56 Clear 41 5 38 3.3 89 89 E 3 6 30.13 1020 10 16 0.00 0.00

Powered by AerisWeather